GEFSSGP_con_cape1000_000.txt.gz
Probability
0 0 0 0 0 0 0 0 0 0 0 0 0 0 0 0 0 0 0 0 0 0 0 100 100 100 100 100 100 100 100 100 100 100 100 100 100 100 100 100 100 100 100 100 100 100 100 100 100
0 0 0 0 0 0 0 0 0 3 3 0 0 3 0 0 6 0 0 0 0 0 10 100 100 100 100 100 100 100 100 100 100 100 100 100 100 100 100 100 100 100 100 100 100 100 100 100 100
0 0 0 0 0 0 0 0 3 23 3 6 3 35 45 19 0 0 0 0 0 6 87 97 100 100 100 100 100 100 100 100 100 100 100 100 100 100 100 100 100 100 100 100 100 100 100 100 100
0 0 0 0 0 0 0 0 0 0 0 0 6 23 45 39 0 0 0 0 3 94 97 97 100 100 100 97 94 97 100 100 100 100 100 100 100 100 100 100 100 100 100 100 100 100 100 100 100
0 0 0 0 0 0 0 0 0 0 0 0 6 29 19 68 10 0 74 90 100 97 94 94 100 100 97 97 97 97 100 100 100 100 90 65 90 87 90 100 100 100 100 100 100 100 100 100 100
0 0 0 0 0 0 0 0 0 0 0 6 42 77 81 87 10 42 90 90 94 97 97 97 100 100 100 100 100 100 100 100 100 100 90 52 35 16 58 97 100 100 97 100 100 100 100 100 100
0 0 0 0 0 0 0 0 0 0 6 23 58 94 100 87 13 35 52 74 100 100 97 97 100 100 100 100 100 100 100 100 100 100 100 100 90 97 100 100 100 97 97 81 84 87 71 94 71
0 0 0 0 0 0 0 0 0 0 10 68 90 90 97 94 58 58 55 97 100 100 100 100 100 100 100 100 100 100 100 100 100 100 100 100 100 100 100 97 84 71 26 19 19 29 16 3 0
0 0 0 0 0 0 0 0 0 0 68 87 100 97 100 90 74 84 97 100 100 100 100 100 100 100 100 100 100 100 100 97 97 90 71 48 45 39 19 81 65 32 0 0 0 0 0 0 0
0 0 0 0 0 0 0 0 0 0 58 68 97 100 97 94 100 100 100 100 100 100 100 100 100 100 100 100 84 42 29 6 26 19 10 0 0 0 0 10 81 3 0 0 0 0 0 0 0
0 0 0 0 0 0 0 0 0 0 10 26 100 100 100 100 100 100 100 100 100 100 100 100 97 94 84 68 23 0 0 0 3 10 0 0 0 0 0 0 0 0 0 0 0 0 0 0 0
0 0 0 0 0 0 0 0 0 0 0 6 100 100 100 100 100 100 100 100 100 100 100 94 87 74 52 45 16 3 0 0 0 0 0 0 0 0 0 0 0 0 0 0 0 0 0 0 0
0 0 0 0 0 0 0 0 0 0 0 6 94 100 100 100 100 100 100 100 100 100 97 84 23 29 19 13 3 3 0 0 0 0 0 0 0 0 0 0 0 0 0 0 0 0 0 0 0
0 0 0 0 0 0 0 0 0 0 0 19 48 87 100 100 100 100 100 100 100 100 97 61 26 19 13 3 0 0 0 0 0 0 0 0 0 0 0 0 0 0 0 0 0 0 0 0 0
0 0 0 0 0 0 0 0 0 0 0 16 19 19 16 65 90 100 100 100 100 94 71 29 35 13 10 3 0 0 0 0 0 0 0 0 0 0 0 0 0 0 0 0 0 0 0 0 0
0 0 0 0 0 0 0 0 0 0 0 0 10 10 0 0 19 100 100 100 90 55 29 6 13 0 0 0 0 0 0 0 0 0 0 0 0 0 0 0 0 0 0 0 0 0 0 0 0
0 0 0 0 0 0 0 0 0 0 0 0 0 6 6 0 0 3 32 71 42 13 6 3 0 0 0 0 0 0 0 0 0 0 0 0 0 0 0 0 0 0 0 0 0 0 0 0 0
0 0 0 0 0 0 0 0 0 0 0 0 6 3 0 0 0 0 0 6 3 3 3 3 0 0 0 0 0 0 0 0 0 0 0 0 0 0 0 0 0 0 0 0 0 0 0 0 0
0 0 0 0 0 0 0 0 0 0 0 0 0 0 0 0 0 0 0 0 0 0 0 0 0 0 0 0 0 0 0 0 0 0 0 0 0 0 0 0 0 0 0 0 0 0 0 0 0
0 0 0 0 0 0 0 0 0 0 0 0 0 0 0 0 0 0 0 0 0 0 0 0 0 0 0 0 0 0 0 0 0 0 0 0 0 0 0 0 0 0 0 0 0 0 0 0 0
0 0 0 0 0 0 0 0 0 0 0 0 0 0 0 0 0 0 0 0 0 0 0 0 0 0 0 0 0 0 0 0 0 0 0 0 0 0 0 0 0 0 0 0 0 0 0 0 0
0 0 0 0 0 0 0 0 0 0 0 0 0 0 0 0 0 0 0 0 0 0 0 0 0 0 0 0 0 0 0 0 0 0 0 0 0 0 0 0 0 0 0 0 0 0 0 0 0
0 0 0 0 0 0 0 0 0 0 0 0 0 0 0 0 0 0 0 0 0 0 0 0 0 0 0 0 0 0 0 0 0 0 0 0 0 0 0 0 0 0 0 0 0 0 0 0 0
0 0 0 0 0 0 0 0 0 0 0 0 0 0 0 0 0 0 0 0 0 0 0 0 0 0 0 0 0 0 0 0 0 0 0 0 0 0 0 0 0 0 0 0 0 0 0 0 0
0 0 0 0 0 0 0 0 0 0 0 0 0 0 0 0 0 0 0 0 0 0 0 0 0 0 0 0 0 0 0 0 0 0 0 0 0 0 0 0 0 0 0 0 0 0 0 0 0
0 0 0 0 0 0 0 0 0 0 0 0 0 0 0 0 0 0 0 0 0 0 0 0 0 0 0 0 0 0 0 0 0 0 0 0 0 0 0 0 0 0 0 0 0 0 0 0 0
0 0 0 0 0 0 0 0 0 0 0 0 0 0 0 0 0 0 0 0 0 0 0 0 0 0 0 0 0 0 0 0 0 0 0 0 0 0 0 0 0 0 0 0 0 0 0 0 0
0 0 0 0 0 0 0 0 0 0 0 0 0 0 0 0 0 0 0 0 0 0 0 0 0 0 0 0 0 0 0 0 0 0 0 0 0 0 0 0 0 0 0 0 0 0 0 0 0
0 0 0 0 0 0 0 0 0 0 0 0 0 0 0 0 0 0 0 0 0 0 0 0 0 0 0 0 0 0 0 0 0 0 0 0 0 0 0 0 0 0 0 0 0 0 0 0 0
0 0 0 0 0 0 0 0 0 0 0 0 0 0 0 0 0 0 0 0 0 0 0 0 0 0 0 0 0 0 0 0 0 0 0 0 0 0 0 0 0 0 0 0 0 0 0 0 0

GEFSSGP_con_cape1000_006.txt.gz
Probability
0 0 0 0 0 0 0 0 0 0 3 13 0 0 0 0 3 10 3 65 100 100 100 74 100 100 100 100 100 100 100 100 100 100 100 100 100 100 100 100 100 100 100 100 100 100 100 100 97
0 0 0 0 0 0 0 0 0 3 81 16 0 0 0 29 26 6 0 68 100 100 100 90 100 100 100 100 100 100 100 100 100 100 100 100 100 100 100 100 90 90 94 94 94 97 100 100 100
0 0 0 0 0 0 0 0 0 81 77 3 3 39 29 90 35 3 16 48 84 100 100 100 100 100 97 100 100 100 100 100 100 100 100 100 100 100 100 94 68 90 87 87 81 90 97 100 100
0 0 0 0 0 0 0 0 26 48 32 3 13 58 74 77 26 10 16 52 77 94 100 100 100 94 94 94 100 100 100 100 100 100 97 97 97 90 90 84 81 94 81 74 90 94 97 97 100
0 0 0 0 0 0 0 0 6 6 0 3 10 6 87 94 29 6 13 71 81 84 97 97 100 97 94 94 100 100 97 97 97 97 94 90 81 48 48 55 58 87 81 74 81 71 48 35 26
0 0 0 0 0 0 0 0 6 0 0 3 6 0 90 97 74 35 26 61 74 94 94 100 100 100 100 100 100 100 97 97 97 94 90 84 84 68 68 55 71 81 74 61 29 23 3 0 0
0 0 0 0 0 0 0 0 0 0 0 0 0 0 81 100 90 61 55 77 87 94 100 100 100 100 100 100 100 100 100 100 100 94 90 84 84 84 77 81 68 45 19 13 0 0 0 0 0
0 0 0 0 0 0 0 0 0 3 0 0 3 0 32 100 90 90 90 90 97 100 100 100 100 100 100 100 100 100 100 100 100 100 97 94 94 94 97 81 39 10 0 0 0 0 0 0 0
0 0 0 0 0 0 0 0 0 0 0 0 0 55 87 94 84 94 94 97 100 97 90 90 90 90 87 97 100 100 100 100 100 100 100 97 55 68 74 42 16 0 0 0 0 0 0 0 0
0 0 0 0 0 0 0 0 0 0 0 0 29 97 97 97 87 94 94 97 87 81 52 48 68 68 52 58 100 97 90 97 97 97 90 81 87 58 10 6 0 0 0 0 0 0 0 0 0
0 0 0 0 0 0 0 0 0 0 0 0 0 87 97 94 94 97 97 97 74 26 6 19 68 71 45 35 35 45 45 77 58 77 87 97 65 23 3 0 0 0 0 0 0 0 0 0 0
0 0 0 0 0 0 0 0 0 0 0 0 0 58 94 87 74 90 94 94 48 16 10 32 84 94 81 26 29 23 6 16 26 74 74 58 39 6 0 0 0 0 0 0 0 0 0 0 0
0 0 0 0 0 0 0 0 0 0 0 0 3 68 87 90 81 87 94 90 65 29 32 42 65 100 94 84 23 13 3 0 45 29 16 3 0 0 0 0 0 0 0 0 0 0 0 0 0
0 0 0 0 0 0 0 0 0 0 0 0 23 74 84 90 81 87 87 87 74 71 58 52 58 90 94 81 45 6 0 6 3 0 0 0 0 0 0 0 0 0 0 0 0 0 0 0 0
0 0 0 0 0 0 0 0 0 0 0 0 6 52 71 81 90 87 77 81 94 100 90 74 58 81 71 26 6 0 0 0 0 0 0 0 0 0 0 0 0 0 0 0 0 0 0 0 0
0 0 0 0 0 0 0 0 0 0 0 0 0 16 55 77 81 87 71 97 100 100 100 94 55 81 84 68 26 3 0 0 0 0 0 0 0 0 0 0 0 0 0 0 0 0 0 0 0
0 0 0 0 0 0 0 0 0 0 0 0 0 0 35 48 68 81 97 100 100 100 100 97 94 94 71 45 23 6 6 0 0 0 0 0 0 0 0 0 0 0 0 0 0 0 0 0 0
0 0 0 0 0 0 0 0 0 0 0 0 0 0 0 16 32 68 97 100 100 100 100 94 90 74 65 35 23 10 0 0 0 0 0 0 0 0 0 0 0 0 0 0 0 16 16 3 6
0 0 0 0 0 0 0 0 0 0 0 0 0 0 0 3 6 10 48 94 100 100 94 71 45 39 45 45 32 10 0 0 0 0 0 0 0 0 3 0 0 6 0 0 0 0 0 0 0
0 0 0 0 0 0 0 0 0 0 0 0 0 0 0 0 0 0 13 52 94 94 77 61 32 29 23 32 45 10 0 0 0 0 0 0 0 0 0 3 3 3 3 3 0 0 0 0 0
0 0 0 0 0 0 0 0 0 0 0 0 0 0 0 0 0 0 0 13 42 55 45 26 26 13 10 10 0 0 0 0 0 0 0 0 0 0 0 0 0 0 0 0 0 0 0 0 0
0 0 0 0 0 0 0 0 0 0 0 0 0 0 0 0 0 0 0 0 0 3 13 13 23 16 6 3 0 0 0 0 0 0 0 0 0 0 0 0 0 0 0 0 0 0 0 0 0
0 0 0 0 0 0 0 0 0 0 0 0 0 0 0 0 0 0 0 0 0 0 0 6 16 16 13 0 0 0 0 0 0 0 0 0 0 0 0 0 0 0 0 0 0 0 0 0 0
0 0 0 0 0 0 0 0 0 0 0 0 0 0 0 0 0 0 0 0 0 0 0 0 0 3 0 0 0 0 0 0 0 0 0 0 0 0 0 0 0 0 0 0 0 0 0 0 0
0 0 0 0 0 0 0 0 0 0 0 0 0 0 0 0 0 0 0 0 0 0 0 0 0 0 0 0 0 0 0 0 0 0 0 0 0 0 0 0 0 0 0 0 0 0 0 0 0
0 0 0 0 0 0 0 0 0 0 0 0 0 0 0 0 0 0 0 0 0 0 0 0 0 0 0 0 0 0 0 0 0 0 0 0 0 0 0 0 0 0 0 0 0 0 0 0 0
0 0 0 0 0 0 0 0 0 0 0 0 0 0 0 0 0 0 0 0 0 0 0 0 0 0 0 0 0 0 0 0 0 0 0 0 0 0 0 0 0 0 0 0 0 0 0 0 0
0 0 0 0 0 0 0 0 0 0 0 0 0 0 0 0 0 0 0 0 0 0 0 0 0 0 0 0 0 0 0 0 0 0 0 0 0 0 0 0 0 0 0 0 0 0 0 0 0
0 0 0 0 0 0 0 0 0 0 0 0 0 0 0 0 0 0 0 0 0 0 0 0 0 0 0 0 0 0 0 0 0 0 0 0 0 0 0 0 0 0 0 0 0 0 0 0 0
0 0 0 0 0 0 0 0 0 0 0 0 0 0 0 0 0 0 0 0 0 0 0 0 0 0 0 0 0 0 0 0 0 0 0 0 0 0 0 0 0 0 0 0 0 0 0 0 0

GEFSSGP_con_cape1000_012.txt.gz
Probability
0 0 0 0 0 0 0 0 0 0 0 0 0 0 42 84 81 97 58 100 100 94 100 100 100 100 100 100 100 100 100 100 100 100 100 100 100 100 100 100 100 97 100 100 97 100 100 100 100
0 0 0 0 0 0 0 0 0 0 0 0 0 0 29 81 48 65 90 100 100 97 100 100 100 100 100 100 100 100 100 100 100 100 100 100 100 100 100 100 97 100 100 94 97 97 100 100 97
0 0 0 0 0 0 0 0 0 0 0 0 0 6 58 52 35 77 100 100 100 100 100 100 100 100 100 97 97 100 100 100 100 100 100 100 100 100 100 100 97 90 87 97 97 94 90 84 71
0 0 0 0 0 0 0 0 0 0 0 0 0 6 29 10 26 84 100 100 100 100 97 100 100 97 97 97 97 97 97 100 100 100 100 100 100 97 100 97 94 97 90 100 94 94 77 71 65
0 0 0 0 0 0 0 0 0 0 0 0 0 13 29 16 55 90 100 100 100 94 90 94 97 97 94 94 94 90 94 97 97 90 90 94 87 90 90 94 97 100 97 87 74 52 29 19 6
0 0 0 0 0 0 0 0 0 0 0 0 0 3 23 19 68 81 87 97 100 97 97 90 100 100 97 90 97 94 94 97 90 90 94 87 87 87 84 94 100 87 84 52 26 6 0 0 0
0 0 0 0 0 0 0 0 0 0 0 0 0 10 23 48 45 48 58 87 97 94 97 100 97 100 100 97 100 94 94 97 94 94 90 87 90 90 94 94 81 71 42 16 0 0 0 0 0
0 0 0 0 0 0 0 0 0 0 0 0 0 13 52 55 45 39 58 84 90 100 100 100 100 100 100 100 100 100 100 100 97 94 90 90 97 97 84 65 55 35 16 0 0 0 0 0 0
0 0 0 0 0 0 0 0 0 0 0 0 0 35 52 39 16 39 65 84 97 97 97 97 100 100 100 100 100 100 100 100 100 100 97 97 100 94 71 26 13 6 3 0 0 0 0 0 0
0 0 0 0 0 0 0 0 0 0 0 0 6 39 45 42 42 52 74 68 77 84 84 68 97 100 97 90 100 100 100 100 97 100 100 100 100 94 65 13 13 6 0 0 0 0 0 0 0
0 0 0 0 0 0 0 0 0 0 0 0 6 26 35 39 45 55 65 68 65 68 42 10 29 77 52 87 100 100 90 97 97 87 90 100 94 68 26 0 0 3 0 0 0 0 0 0 0
0 0 0 0 0 0 0 0 0 0 0 0 3 19 26 23 19 39 65 68 61 39 16 3 3 42 74 45 26 65 26 81 77 77 84 97 94 68 42 29 6 0 0 0 0 0 0 0 0
0 0 0 0 0 0 0 0 0 0 0 0 3 6 13 16 3 6 39 42 23 13 3 6 61 100 97 87 68 3 45 26 55 45 26 23 32 19 3 10 10 0 0 0 3 0 0 0 0
0 0 0 0 0 0 0 0 0 0 0 0 0 0 0 0 3 16 35 19 10 6 23 48 71 100 87 87 58 13 3 35 13 13 0 0 13 13 6 6 10 10 6 13 6 0 0 10 3
0 0 0 0 0 0 0 0 0 0 0 0 0 0 0 0 0 6 26 48 19 32 74 87 90 100 84 55 13 0 0 0 3 3 0 0 0 10 6 35 19 35 23 13 19 13 42 29 3
0 0 0 0 0 0 0 0 0 0 0 0 0 0 0 0 0 0 13 61 39 26 58 71 39 94 90 81 45 16 10 16 6 10 3 0 0 0 39 58 39 45 23 42 61 71 39 35 39
0 0 0 0 0 0 0 0 0 0 0 0 0 0 0 0 3 6 26 42 39 39 35 58 84 90 65 55 58 29 39 39 23 16 19 6 0 0 3 74 84 68 55 71 39 19 48 32 29
0 0 0 0 0 0 0 0 0 0 0 0 0 0 0 6 19 42 52 52 39 26 29 42 74 94 77 61 58 52 29 29 29 32 23 6 19 23 29 55 68 68 68 68 55 29 29 29 16
0 0 0 0 0 0 0 0 0 0 0 0 0 0 3 3 10 29 65 71 52 35 39 48 81 87 71 71 65 55 42 35 39 45 35 16 26 42 61 39 55 65 39 35 16 23 10 3 10
0 0 0 0 0 0 0 0 0 0 0 0 0 0 0 0 0 29 58 71 71 61 68 65 68 68 61 68 77 84 71 35 35 45 48 23 16 16 3 29 10 19 23 16 16 16 0 0 0
0 0 0 0 0 0 0 0 0 0 0 0 0 0 0 3 10 32 39 32 39 45 45 35 39 32 26 35 39 39 58 32 23 32 19 6 6 6 10 3 3 6 0 0 6 0 0 0 0
0 0 0 0 0 0 0 0 0 0 0 0 0 0 6 6 6 6 10 6 16 13 10 10 16 10 13 16 16 19 16 16 6 3 3 0 0 0 0 0 0 0 0 0 0 0 0 0 0
0 0 0 0 0 0 0 0 0 0 0 0 0 0 3 3 3 0 0 0 0 0 0 0 0 0 0 0 0 0 0 0 0 0 0 0 0 0 0 0 0 0 0 0 0 0 0 0 0
0 0 0 0 0 0 0 0 0 0 0 0 0 0 3 0 0 0 0 0 0 0 0 0 0 0 0 0 0 0 0 0 0 0 0 0 0 0 0 0 0 0 0 0 0 0 0 0 0
0 0 0 0 0 0 0 0 0 0 0 0 0 0 0 0 0 0 0 0 0 0 0 0 0 0 0 0 0 0 0 0 0 0 0 0 0 0 0 0 0 0 0 0 0 0 0 0 0
0 0 0 0 0 0 0 0 0 0 0 0 0 0 0 0 0 0 0 0 0 0 0 0 0 0 0 0 0 0 0 0 0 0 0 0 0 0 0 0 0 0 0 0 0 0 0 0 0
0 0 0 0 0 0 0 0 0 0 0 0 0 0 0 0 0 0 0 0 0 0 0 0 0 0 0 0 0 0 0 0 0 0 0 0 0 0 0 0 0 0 0 0 0 0 0 0 0
0 0 0 0 0 0 0 0 0 0 0 0 0 0 0 0 0 0 0 0 0 0 0 0 0 0 0 0 0 0 0 0 0 0 0 0 0 0 0 0 0 0 0 0 0 0 0 0 0
0 0 0 0 0 0 0 0 0 0 0 0 0 0 0 0 0 0 0 0 0 0 0 0 0 0 0 0 0 0 0 0 0 0 0 0 0 0 0 0 0 0 0 0 0 0 0 0 0
0 0 0 0 0 0 0 0 0 0 0 0 0 0 0 0 0 0 0 0 0 0 0 0 0 0 0 0 0 0 0 0 0 0 0 0 0 0 0 0 0 0 0 0 0 0 0 0 0

GEFSSGP_con_cape1000_018.txt.gz
Probability
0 0 0 0 0 0 0 0 0 0 0 0 23 35 45 45 19 16 35 71 87 100 100 100 100 100 100 100 100 100 100 100 100 100 100 100 100 100 100 100 100 100 100 100 100 100 100 100 100
0 0 0 0 0 0 0 0 0 0 0 3 32 52 58 68 71 74 42 68 90 100 100 100 100 100 100 100 100 100 100 100 100 100 100 100 100 100 100 100 100 100 100 100 100 100 100 100 97
0 0 0 0 0 0 0 0 0 0 0 6 10 6 29 87 94 94 55 55 90 100 100 100 100 100 100 100 100 100 100 100 100 100 100 100 100 100 100 100 100 100 100 100 100 100 100 100 94
0 0 0 0 0 0 0 0 0 0 0 3 0 0 10 74 94 94 58 84 90 100 100 100 100 100 100 100 100 100 100 100 100 100 100 100 100 100 100 100 100 100 100 100 100 100 100 90 87
0 0 0 0 0 0 0 0 0 0 0 6 0 19 65 90 100 81 77 87 87 100 100 100 100 100 100 100 100 100 100 100 100 100 100 100 97 97 97 100 100 100 100 100 100 97 77 65 58
0 0 0 0 0 0 0 0 0 0 0 0 0 0 52 97 97 94 90 65 77 81 90 97 100 97 94 100 100 100 97 100 97 94 100 87 94 94 100 100 100 100 100 97 87 65 55 29 13
0 0 0 0 0 0 0 0 0 0 0 0 0 0 42 87 87 90 68 58 68 81 84 84 94 100 94 94 100 97 94 94 90 90 87 81 87 87 97 97 100 94 81 61 45 29 13 10 3
0 0 0 0 0 0 0 0 0 0 0 0 0 3 10 74 77 74 71 65 61 61 74 81 84 84 90 90 97 94 97 90 94 94 90 90 94 94 94 97 90 55 42 35 13 6 3 3 3
0 0 0 0 0 0 0 0 0 0 0 6 6 0 13 61 68 65 61 58 52 55 48 58 71 81 90 94 97 97 94 97 94 90 90 94 74 71 61 61 65 42 23 10 6 0 0 0 0
0 0 0 0 0 0 0 0 3 6 10 16 23 10 23 55 61 65 52 42 39 48 48 48 61 71 71 94 100 94 97 100 87 61 84 61 16 10 23 23 35 23 16 6 6 0 0 0 0
0 0 0 0 0 0 0 0 3 6 3 3 10 10 16 32 48 55 45 35 39 45 48 55 65 71 55 45 65 55 32 35 19 16 19 3 0 3 3 3 13 13 6 0 0 0 0 0 0
0 0 0 0 0 0 0 0 3 3 6 6 6 10 16 19 32 35 32 35 29 29 48 42 42 35 23 13 52 45 29 19 6 3 3 0 0 0 0 0 0 0 0 0 0 0 0 0 0
0 0 0 0 0 0 0 0 0 0 6 13 10 13 13 13 26 23 26 19 16 16 16 16 13 6 3 6 16 35 32 26 10 0 0 3 0 0 0 0 0 0 0 0 0 0 0 0 0
0 0 0 0 0 0 0 0 0 0 6 13 16 13 13 16 16 26 10 6 6 6 3 0 0 0 0 3 3 3 6 6 3 0 0 0 0 0 0 0 0 0 0 0 0 0 0 0 0
0 0 0 0 0 0 0 0 0 0 6 13 13 13 13 6 19 16 3 3 0 0 0 0 0 0 0 0 0 0 0 0 0 0 0 0 0 0 0 0 0 0 0 0 0 0 0 0 0
0 0 0 0 0 0 0 0 0 0 3 0 3 3 10 6 6 6 10 0 0 0 0 0 0 0 0 0 0 0 0 0 0 0 0 0 0 0 0 0 0 0 0 0 0 0 0 0 0
0 0 0 0 0 0 0 0 0 0 3 6 6 13 6 3 0 3 0 0 0 0 0 0 0 0 0 0 0 0 0 0 0 0 0 0 0 0 0 0 0 0 0 0 0 0 0 0 0
0 0 0 0 0 0 0 0 0 0 3 6 10 16 16 3 0 0 0 0 0 0 0 0 0 0 0 0 0 0 0 0 0 0 0 0 0 0 0 0 0 0 0 0 0 0 0 0 0
0 0 0 0 0 0 0 0 0 3 6 6 23 23 16 6 6 0 0 0 0 0 0 0 0 0 0 0 0 0 0 0 0 0 0 0 0 0 0 0 0 0 0 0 0 0 0 0 0
0 0 0 0 0 0 0 0 0 0 6 6 19 26 32 16 6 3 0 0 0 0 0 0 0 0 0 0 0 0 0 0 0 0 0 0 0 0 0 0 0 0 0 0 0 0 0 0 0
0 0 0 0 0 0 0 0 0 0 3 6 10 13 23 13 6 0 0 0 0 0 0 0 0 0 0 0 0 0 0 0 0 0 0 0 0 0 0 0 0 0 0 0 0 0 0 0 0
0 0 0 0 0 0 0 0 0 0 0 3 13 10 10 10 6 3 0 0 0 0 0 0 0 0 0 0 0 0 0 0 0 0 0 0 0 0 0 0 0 0 0 0 0 0 0 0 0
0 0 0 0 0 0 0 0 0 0 0 0 0 3 0 0 0 0 0 0 0 0 0 0 0 0 0 0 0 0 0 0 0 0 0 0 0 0 0 0 0 0 0 0 0 0 0 0 0
0 0 0 0 0 0 0 0 0 0 0 0 0 0 0 0 0 0 0 0 0 0 0 0 0 0 0 0 0 0 0 0 0 0 0 0 0 0 0 0 0 0 0 0 0 0 0 0 0
0 0 0 0 0 0 0 0 0 0 0 0 0 0 0 0 0 0 0 0 0 0 0 0 0 0 0 0 0 0 0 0 0 0 0 0 0 0 0 0 0 0 0 0 0 0 0 0 0
0 0 0 0 0 0 0 0 0 0 0 0 0 0 0 0 0 0 0 0 0 0 0 0 0 0 0 0 0 0 0 0 0 0 0 0 0 0 0 0 0 0 0 0 0 0 0 0 0
0 0 0 0 0 0 0 0 0 0 0 0 0 0 0 0 0 0 0 0 0 0 0 0 0 0 0 0 0 0 0 0 0 0 0 0 0 0 0 0 0 0 0 0 0 0 0 0 0
0 0 0 0 0 0 0 0 0 0 0 0 0 0 0 0 0 0 0 0 0 0 0 0 0 0 0 0 0 0 0 0 0 0 0 0 0 0 0 0 0 0 0 0 0 0 0 0 0
0 0 0 0 0 0 0 0 0 0 0 0 0 0 0 0 0 0 0 0 0 0 0 0 0 0 0 0 0 0 0 0 0 0 0 0 0 0 0 0 0 0 0 0 0 0 0 0 0
0 0 0 0 0 0 0 0 0 0 0 0 0 0 0 0 0 0 0 0 0 0 0 0 0 0 0 0 0 0 0 0 0 0 0 0 0 0 0 0 0 0 0 0 0 0 0 0 0